ABS-3A

Last updated on Thu Nov 21 2024 00:02:42 GMT+0000 (Coordinated Universal Time)

1 40424U 15010A 24324.65107161 -.00000025 00000+0 00000+0 0 9999 2 40424 0.0121 334.7476 0001709 209.8205 106.0103 1.00270712 35613
UTC large
Height (km)
Speed (km/s)
/
Latitude / Longitude
Inclination (degrees)
Orbital Period (minutes)
Azimuth
Elevation
Range (km)
Doppler Factor

Next 0 passes for location: London (51.5072 / 0.1276)

Sorry there are no passes over London.